This is the latest recevied weather packets stored in our database for station/object CQ0XVC-11. If no packets are shown the sender has not sent any weather packets the latest 1 day(s).
| Time | Temp. | Humidity | Pressure | Rain* | Wind** | Luminosity | Snow |
|---|---|---|---|---|---|---|---|
| 1777974633 | 13.89° C | 50% | 1004.4 hPa | 0 mm | 0 m/s | - | - |
| 1777974331 | 13.89° C | 50% | 1004.5 hPa | 0 mm | 0.45 m/s, 67° | - | - |
| 1777974028 | 13.89° C | 50% | 1004.5 hPa | 0 mm | 0 m/s | - | - |
| 1777973766 | 13.89° C | 50% | 1004.4 hPa | 0 mm | 0 m/s | - | - |
| 1777973727 | 13.89° C | 50% | 1004.4 hPa | 0 mm | 0 m/s | - | - |
| 1777973424 | 13.89° C | 50% | 1004.5 hPa | 0 mm | 1.79 m/s, 45° | - | - |
| 1777973159 | 14.44° C | 49% | 1004.6 hPa | 0 mm | 2.68 m/s, 67° | - | - |
| 1777973123 | 14.44° C | 49% | 1004.6 hPa | 0 mm | 2.68 m/s, 67° | - | - |
| 1777972820 | 14.44° C | 50% | 1004.4 hPa | 0 mm | 0.89 m/s, 123° | - | - |
| 1777972549 | 14.44° C | 52% | 1004.4 hPa | 0 mm | 1.34 m/s, 78° | - | - |
| 1777972518 | 14.44° C | 52% | 1004.4 hPa | 0 mm | 1.34 m/s, 78° | - | - |
| 1777972215 | 14.44° C | 53% | 1004.5 hPa | 0 mm | 0 m/s | - | - |
| 1777971914 | 13.89° C | 54% | 1004.5 hPa | 0 mm | 1.34 m/s, 270° | - | - |
| 1777971611 | 13.89° C | 55% | 1004.5 hPa | 0 mm | 1.34 m/s, 180° | - | - |
| 1777971351 | 13.89° C | 56% | 1004.5 hPa | 0 mm | 0.45 m/s, 225° | - | - |
| 1777971309 | 13.89° C | 56% | 1004.5 hPa | 0 mm | 0.45 m/s, 225° | - | - |
| 1777971006 | 13.33° C | 56% | 1004.4 hPa | 0 mm | 0.89 m/s, 247° | - | - |
| 1777970705 | 13.89° C | 54% | 1004.5 hPa | 0 mm | 1.79 m/s, 270° | - | - |
| 1777970100 | 13.89° C | 58% | 1004.6 hPa | 0 mm | 0 m/s | - | - |
| 1777969798 | 13.33° C | 62% | 1004.5 hPa | 0 mm | 0.89 m/s, 247° | - | - |
| 1777969536 | 13.33° C | 58% | 1004.6 hPa | 0 mm | 0.45 m/s, 225° | - | - |
| 1777969496 | 13.33° C | 58% | 1004.6 hPa | 0 mm | 0.45 m/s, 225° | - | - |
| 1777969193 | 13.89° C | 57% | 1004.5 hPa | 0 mm | 0 m/s | - | - |
| 1777968892 | 13.89° C | 59% | 1004.5 hPa | 0 mm | 0 m/s | - | - |
| 1777968589 | 13.89° C | 60% | 1004.4 hPa | 0 mm | 0 m/s | - | - |
* Rain since midnight (hover to see other rain measurements)
** Current wind speed in m/s (hover to see current wind gust speed)